This is the latest recevied weather packets stored in our database for station/object CE3SUR-17. If no packets are shown the sender has not sent any weather packets the latest 10 day(s).
| Time | Temp. | Humidity | Pressure | Rain* | Wind** | Luminosity | Snow |
|---|---|---|---|---|---|---|---|
| 1777929781 | 27.78° C | 39% | 956.3 hPa | - | - | - | - |
| 1777927980 | 28.89° C | 38% | 956.4 hPa | - | - | - | - |
| 1777926180 | 28.89° C | 38% | 956.3 hPa | - | - | - | - |
| 1777924380 | 28.33° C | 39% | 956.3 hPa | - | - | - | - |
| 1777922579 | 27.78° C | 39% | 956.4 hPa | - | - | - | - |
| 1777920779 | 26.11° C | 40% | 956.6 hPa | - | - | - | - |
| 1777920699 | 26.11° C | 40% | 956.7 hPa | - | - | - | - |
| 1777920617 | 26.11° C | 40% | 956.8 hPa | - | - | - | - |
| 1777919330 | 27.22° C | 39% | 956.9 hPa | - | - | - | - |
| 1777917530 | 26.11° C | 39% | 957.2 hPa | - | - | - | - |
| 1777915730 | 26.11° C | 39% | 957.6 hPa | - | - | - | - |
| 1777913930 | 25.56° C | 40% | 957.9 hPa | - | - | - | - |
| 1777912130 | 25° C | 40% | 958.2 hPa | - | - | - | - |
| 1777910460 | 25° C | 40% | 958.3 hPa | - | - | - | - |
| 1777910332 | 25° C | 40% | 958.3 hPa | - | - | - | - |
| 1777908531 | 23.89° C | 40% | 958.7 hPa | - | - | - | - |
| 1777906732 | 22.78° C | 41% | 958.7 hPa | - | - | - | - |
| 1777905241 | 21.11° C | 41% | 958.9 hPa | - | - | - | - |
| 1777904931 | 21.11° C | 41% | 958.9 hPa | - | - | - | - |
| 1777903187 | 19.44° C | 42% | 958.9 hPa | - | - | - | - |
| 1777903131 | 19.44° C | 42% | 958.9 hPa | - | - | - | - |
| 1777901330 | 18.33° C | 42% | 959 hPa | - | - | - | - |
| 1777899824 | 17.78° C | 42% | 958.8 hPa | - | - | - | - |
| 1777899530 | 17.78° C | 42% | 958.8 hPa | - | - | - | - |
| 1777897743 | 17.22° C | 43% | 958.7 hPa | - | - | - | - |
* Rain since midnight (hover to see other rain measurements)
** Current wind speed in m/s (hover to see current wind gust speed)